RH
79 71 84 82 80 78 76 75 79 79 79 78 70 75 78 79 80 79 76 72 72 68 66 67 72 74 66 70 73 75 79 78 78 79 78 77 72 72 75 74 73 62 71
75 69 84 82 78 76 75 77 83 82 82 80 78 75 78 79 78 76 73 69 67 67 67 68 72 70 71 72 73 76 79 80 79 80 84 82 79 71 71 72 72 66 74
76 70 71 84 82 80 79 80 82 81 80 81 80 80 81 79 77 74 72 68 69 68 68 69 71 72 73 75 75 78 79 80 80 81 80 57 58 67 65 66 68 71 70
74 70 68 83 84 83 79 82 82 76 76 80 82 81 80 77 75 73 70 67 70 70 71 72 73 74 77 77 76 78 80 80 82 81 56 54 52 68 66 65 64 64 65
75 73 72 85 85 83 80 83 77 72 72 79 83 83 81 77 75 70 70 69 75 76 75 74 74 75 80 82 77 78 80 82 84 68 60 61 58 64 68 68 65 66 66
79 75 82 86 85 84 85 84 76 72 70 75 81 82 81 78 73 69 73 78 79 78 75 73 73 72 76 80 79 80 82 85 82 66 63 66 61 70 71 70 68 67 66
83 77 73 86 85 86 88 83 79 72 71 73 75 76 78 76 74 71 73 75 77 75 75 72 71 70 69 71 72 81 83 84 63 66 66 66 63 70 71 73 71 67 67
79 77 72 86 87 89 86 84 82 76 72 75 76 74 74 72 68 74 75 77 76 74 72 71 70 70 66 67 66 67 75 75 64 64 69 68 74 70 71 72 73 69 67
80 78 77 75 81 91 89 87 86 80 76 77 76 78 71 78 74 73 77 77 76 74 74 74 72 69 64 62 65 68 69 72 52 58 61 64 84 68 68 69 72 72 67
82 82 81 80 76 76 77 91 90 86 82 81 81 82 85 76 80 79 84 82 79 77 76 74 70 66 64 63 64 67 68 70 50 55 51 54 76 66 65 68 70 71 69
90 87 83 86 78 78 78 83 91 92 90 88 86 90 86 69 71 74 86 87 85 82 78 75 72 69 70 73 72 66 62 36 46 50 50 68 71 63 63 72 68 70 70
89 95 90 86 81 81 77 79 84 84 80 74 72 74 72 76 74 73 82 89 87 85 83 75 72 70 64 48 48 58 39 40 38 39 42 71 69 62 56 68 74 71 72
93 89 87 85 84 81 79 86 86 87 91 81 77 76 77 80 80 76 76 73 72 80 64 67 65 54 51 48 51 45 46 47 42 43 52 62 63 62 56 58 65 74 74
91 95 90 86 87 82 80 87 88 88 90 85 80 79 79 82 83 80 75 74 71 68 63 61 56 57 56 56 53 52 52 52 50 52 55 72 68 65 60 58 61 70 74
90 93 97 93 90 82 80 90 89 85 88 86 81 81 79 80 80 75 73 72 71 68 64 63 63 62 62 62 61 59 56 55 54 56 57 82 78 71 67 61 60 61 65
91 88 94 97 94 89 87 88 93 86 85 85 83 80 78 74 74 75 77 75 73 69 66 64 67 70 66 65 60 58 58 58 57 60 60 60 83 80 76 72 65 61 60
90 88 87 80 82 91 88 88 85 86 87 86 86 79 77 75 74 73 74 75 71 68 64 71 70 67 66 64 61 59 59 57 60 60 58 59 61 86 81 74 72 66 62
82 88 83 70 73 82 88 94 91 82 85 85 81 76 77 75 73 72 74 73 70 70 69 67 66 65 64 64 61 59 58 57 56 57 58 59 62 61 74 77 76 74 65
78 83 83 81 75 78 92 96 90 84 90 88 86 83 75 69 69 69 70 68 64 65 68 66 63 62 65 65 65 60 65 60 60 60 58 64 64 64 63 80 84 81 76
77 80 79 77 74 87 93 91 94 92 92 94 91 86 80 79 68 68 66 64 63 65 64 62 60 64 63 71 77 76 61 60 60 62 62 63 63 69 66 68 65 69 84
86 86 79 80 73 92 93 89 93 93 87 91 93 90 88 82 78 80 72 67 68 71 64 62 63 73 84 84 83 64 62 59 62 59 58 62 66 67 66 69 68 67 70
93 90 88 83 84 85 88 88 86 85 94 85 89 89 84 88 89 79 74 78 77 74 73 79 78 83 80 78 83 81 69 59 59 63 57 61 63 62 66 68 66 65 70
85 94 87 78 77 83 88 95 97 97 97 98 98 95 93 92 92 86 82 85 86 87 85 86 87 86 84 91 85 82 75 71 74 64 65 59 60 59 61 67 64 65 66
57 68 92 94 85 84 88 93 94 96 97 98 99 99 99 98 98 96 94 94 92 93 94 93 92 93 92 86 85 83 84 81 80 68 66 65 62 60 64 64 64 66 72
54 54 61 82 93 96 94 88 92 96 93 92 98 97 99 98 97 98 99 97 97 95 96 92 80 80 88 86 81 80 82 85 81 90 78 72 70 67 66 66 68 62 70
64 65 72 76 94 96 95 95 96 92 93 98 98 98 97 97 98 97 99 99 99 98 96 94 89 87 87 84 80 82 77 75 81 90 90 79 81 71 69 69 75 76 76
Wind_Speed
13 16 18 19 18 17 16 15 15 14 12 13 18 17 18 18 19 19 18 19 16 18 18 18 17 17 17 16 16 15 16 17 17 16 15 13 13 13 15 16 13 13 14
16 18 19 19 18 16 16 14 13 13 11 12 17 19 20 19 21 20 18 18 18 17 17 17 17 17 16 16 15 14 16 15 14 14 11 11 12 14 14 14 14 12 15
17 17 18 18 17 15 15 15 14 12 10 11 17 19 21 21 20 20 18 17 17 17 17 16 15 14 13 13 14 13 14 13 13 12 9 10 12 14 15 14 14 13 14
16 15 16 17 17 16 15 15 15 14 11 11 16 18 20 20 19 19 17 17 17 16 16 15 13 12 12 12 13 13 12 12 11 9 8 9 11 14 15 14 14 14 13
15 14 14 17 17 17 16 17 15 14 13 10 13 16 18 18 18 17 17 16 15 15 15 14 13 12 12 12 13 11 11 11 10 8 9 9 8 12 14 14 13 13 13
13 14 15 16 16 16 15 16 15 14 13 12 10 14 16 18 17 16 15 14 13 13 14 13 12 12 10 10 11 11 10 10 6 8 7 8 9 12 13 13 13 13 13
12 13 14 17 17 14 16 16 15 14 14 13 11 11 14 16 15 16 15 14 14 14 13 13 12 11 10 9 9 9 9 8 6 6 6 6 7 10 11 12 12 12 12
13 13 13 15 16 14 16 15 15 14 14 13 12 11 12 14 15 14 13 13 12 13 13 12 11 10 10 10 10 7 7 6 5 5 5 4 5 8 9 9 10 11 11
14 13 11 12 13 12 12 13 15 15 13 12 10 9 10 12 13 13 12 12 11 10 10 10 9 9 8 8 9 8 6 5 4 4 4 3 3 5 5 5 7 8 8
12 14 12 11 11 11 11 11 12 14 13 11 10 9 9 11 10 11 8 9 10 9 9 8 8 7 7 6 6 7 7 6 4 3 2 2 2 1 3 3 4 5 6
8 12 12 11 10 9 9 7 12 13 12 11 10 10 8 6 8 9 6 7 7 7 8 7 6 6 6 6 5 5 3 2 2 1 0 1 2 1 2 3 3 3 3
9 10 10 11 10 9 7 7 7 9 9 9 9 10 7 7 6 6 6 7 6 6 6 6 6 6 4 2 2 2 2 2 1 1 1 3 4 3 1 2 4 4 4
6 7 9 10 9 9 7 5 4 4 4 6 9 8 6 5 4 4 4 3 3 3 3 3 3 3 4 2 2 2 1 1 1 1 2 4 5 5 4 3 4 5 6
4 4 10 10 9 7 6 5 6 5 5 5 7 8 6 4 4 4 3 4 3 3 4 3 2 2 3 3 2 2 2 2 1 1 3 5 6 7 7 6 6 6 5
3 4 4 8 10 7 7 5 5 6 6 7 7 8 6 5 5 5 4 4 3 3 3 3 3 3 3 3 3 4 4 4 4 2 3 6 8 6 9 8 8 7 6
7 5 5 8 9 10 7 7 5 5 6 6 6 7 8 6 6 6 5 5 5 5 4 4 3 3 3 3 3 4 4 4 5 5 3 4 8 7 6 8 9 9 6
7 10 10 6 4 7 10 9 6 5 3 5 5 8 9 8 7 7 5 5 5 4 6 5 5 4 3 3 5 4 4 5 5 5 4 3 2 3 5 5 6 8 5
15 13 15 7 4 6 9 7 5 7 6 5 5 5 8 10 9 7 6 6 5 5 5 5 4 4 4 4 4 4 4 4 5 5 4 4 4 3 3 2 5 7 4
15 17 16 11 11 10 6 5 5 8 6 6 5 5 7 9 10 9 7 7 6 5 6 5 5 5 4 4 5 5 3 4 4 3 5 5 5 5 4 3 5 5 7
16 15 13 12 13 10 6 5 6 4 6 6 6 7 9 8 11 9 8 8 7 6 5 5 7 6 4 3 3 3 3 3 3 3 5 5 5 4 2 2 4 6 10
17 12 12 10 7 3 2 3 3 4 4 4 5 7 7 10 11 9 7 7 7 8 9 9 6 6 4 3 2 1 2 4 2 1 2 3 2 1 3 4 4 4 6
2 10 11 7 8 6 5 3 4 2 2 1 1 4 8 8 10 11 10 9 9 8 9 8 8 4 3 3 2 1 3 3 2 2 2 2 3 2 4 4 5 5 5
4 6 12 18 12 9 7 3 3 2 2 2 0 3 5 5 6 10 11 8 8 6 7 7 6 6 4 2 2 2 2 2 2 1 2 2 2 2 3 4 5 5 5
6 5 5 5 12 12 13 7 6 7 3 4 3 4 4 6 1 3 5 4 5 4 4 3 3 2 1 2 1 2 1 2 3 3 1 1 0 2 3 3 4 3 4
3 2 3 3 2 0 6 13 10 8 9 9 5 7 7 3 5 5 2 0 2 3 3 4 4 4 1 2 3 3 2 2 4 5 5 2 2 1 2 2 3 3 3
6 5 4 3 5 5 2 2 6 8 8 8 8 8 6 4 4 4 6 4 4 4 5 4 4 6 4 2 3 4 3 2 3 5 6 8 6 4 4 4 4 3 3
Wind_Direction
161 156 159 153 146 143 138 140 133 127 128 137 143 143 139 133 126 124 119 109 116 118 118 116 109 104 105 101 96 95 90 86 81 78 73 67 69 64 59 51 46 67 68
151 154 159 153 152 149 142 145 135 131 130 130 145 145 140 136 130 124 121 123 123 122 120 116 114 109 105 103 102 105 96 87 83 79 72 74 75 69 64 58 48 47 53
150 154 159 155 151 147 144 145 142 136 128 124 136 140 138 133 128 123 124 125 125 126 124 118 110 109 111 112 111 110 98 86 84 82 79 83 78 72 69 66 59 47 44
150 154 158 156 149 142 147 145 137 131 134 127 131 134 136 126 121 126 126 126 127 123 117 113 110 107 111 123 122 119 104 97 90 88 87 84 82 76 71 68 65 61 51
151 155 155 155 150 143 151 143 137 138 141 134 134 135 130 125 128 126 129 126 122 119 119 115 108 103 103 110 125 118 106 93 84 85 83 81 78 74 71 68 65 62 58
153 155 150 151 146 144 154 142 139 142 146 140 129 132 134 133 128 131 128 122 123 128 126 117 107 101 95 104 114 115 108 98 96 90 89 87 80 78 72 67 63 61 59
159 158 154 150 143 150 149 141 140 144 148 147 139 133 125 120 129 132 135 137 136 135 131 123 115 110 103 107 112 115 111 105 106 100 95 89 83 78 71 65 60 59 58
157 152 153 153 145 146 147 145 141 144 148 148 148 143 134 135 140 135 137 137 137 136 133 128 123 118 112 112 110 112 117 113 111 104 105 98 68 80 76 70 63 59 56
151 147 149 152 148 138 147 151 145 144 146 145 144 138 148 134 144 143 140 138 136 131 127 124 123 118 115 112 110 108 110 120 118 101 106 104 8 86 79 78 69 63 60
157 146 147 146 152 149 148 155 149 145 145 141 134 124 119 140 141 141 138 137 132 128 122 119 115 111 106 98 95 100 100 113 123 116 109 99 305 56 49 13 108 79 63
140 146 151 150 155 148 151 156 156 147 143 136 131 127 126 151 151 147 141 136 131 136 133 131 125 117 95 71 71 92 101 87 133 145 182 269 276 320 48 83 150 132 100
155 155 160 151 157 150 153 152 139 155 151 151 151 153 154 157 159 158 152 147 146 146 143 146 136 116 122 132 125 123 119 124 133 203 253 269 265 267 241 189 207 202 179
297 156 163 161 160 157 159 153 150 144 142 150 152 154 152 152 161 164 157 160 160 147 164 155 143 152 160 165 148 167 179 162 209 246 287 293 275 270 274 255 261 240 210
301 254 165 158 160 159 156 162 163 158 154 151 161 159 161 163 175 174 174 171 178 176 182 186 188 176 185 186 205 218 243 255 251 253 268 271 269 263 271 269 260 277 219
325 328 173 155 164 157 160 170 172 172 178 164 171 175 171 175 182 179 184 186 191 189 202 194 202 204 214 220 226 243 253 255 257 261 270 255 262 259 264 259 267 267 275
138 291 239 197 178 159 159 174 175 182 184 186 182 185 186 186 189 194 192 196 198 199 192 201 205 218 236 241 242 233 249 257 261 253 250 253 240 254 269 274 266 266 280
159 203 267 275 290 194 174 163 165 167 176 197 207 201 198 198 203 205 204 209 206 197 199 196 198 214 233 228 242 237 251 257 265 269 291 304 277 222 264 293 271 256 259
171 185 224 206 214 219 209 162 167 176 175 201 210 221 223 219 215 213 209 211 204 203 205 205 204 213 220 225 233 236 239 245 259 268 264 258 265 271 254 266 268 258 176
193 182 201 209 210 184 190 161 170 190 191 195 203 212 228 244 226 211 213 213 194 202 207 207 205 211 212 214 233 245 244 249 259 268 284 277 264 264 264 242 244 153 124
195 198 200 203 210 185 163 165 167 190 192 184 188 219 225 225 237 219 216 214 195 196 202 201 214 203 214 224 227 247 272 279 290 301 300 295 292 290 261 156 134 122 111
186 191 182 194 219 139 143 161 205 224 222 217 173 200 221 221 215 206 213 209 200 198 203 205 207 206 208 210 221 280 277 293 329 43 341 325 341 27 117 123 126 123 94
198 183 160 188 193 218 201 173 218 208 235 241 173 257 257 229 225 211 203 196 196 204 206 203 201 179 185 174 129 254 291 278 55 40 30 42 76 119 125 109 110 106 99
196 227 178 199 211 206 203 175 110 66 44 67 345 284 268 248 240 241 220 193 188 196 207 199 199 195 183 168 177 196 267 248 319 109 48 43 105 126 125 131 129 119 115
235 202 234 208 204 207 205 214 200 203 249 288 194 188 242 211 250 297 268 232 187 177 169 146 159 128 289 169 169 257 198 220 260 293 154 118 97 170 163 159 138 133 126
355 316 302 257 174 293 213 196 214 189 202 218 201 212 208 173 172 135 90 55 163 136 149 166 127 114 93 190 206 191 160 195 226 239 278 222 207 200 183 191 158 165 143
15 31 33 24 60 71 106 181 199 189 202 204 193 196 200 221 169 134 130 152 185 159 161 174 175 153 171 176 220 208 196 176 177 210 235 263 254 203 193 181 175 163 167